Latest Weather Observations for Coonamble

IDN60801

Issued at 12:05 am EDT Sunday 2 November 2014 (issued every 30 minutes, with the page automatically refreshed every 10 minutes)

About weather observations | Map of weather stations | Latest weather observations for NSW | Other Formats
Station Details ID: 051161 Name: COONAMBLE AIRPORT AWS Lat: -30.98 Lon: 148.38 Height: 181.3 m
Data from the previous 72 hours. | See also: Recent months at Coonamble
Date/Time
EDT
Temp
°C
App
Temp
°C
Dew
Point
Rel
Hum
%
Delta-T
°C
Wind Press
QNH
hPa
Press
MSL
hPa
Rain
since 9 am
mm
Dir
 
Spd
km/h
Gust
km/h
Spd
kts
Gust
kts
02/12:02am 19.1 12.6 4.5 38 7.1 S 28 48 15 26 1014.9 1014.1 0.0
02/12:00am 18.8 12.4 5.3 41 6.6 S 28 35 15 19 1014.9 1014.1 0.0
 
Date/Time
EDT
Temp
°C
App
Temp
°C
Dew
Point
Rel
Hum
%
Delta-T
°C
Wind Press
QNH
hPa
Press
MSL
hPa
Rain
since 9 am
mm
Dir
 
Spd
km/h
Gust
km/h
Spd
kts
Gust
kts
01/11:30pm 19.4 13.5 5.8 41 6.8 SSW 26 37 14 20 1014.6 1013.8 0.0
01/11:00pm 19.7 14.5 7.1 44 6.4 SSW 24 33 13 18 1014.2 1013.4 0.0
01/10:30pm 20.1 15.3 7.5 44 6.5 SSW 22 26 12 14 1013.6 1012.8 0.0
01/10:00pm 21.0 15.1 7.6 42 7.0 S 28 39 15 21 1013.1 1012.3 0.0
01/09:30pm 21.7 15.8 8.9 44 6.9 SSW 30 37 16 20 1012.6 1011.8 0.0
01/09:00pm 22.1 16.4 9.9 46 6.7 SSW 30 41 16 22 1011.7 1010.8 0.0
01/08:30pm 22.7 16.6 10.5 46 6.8 SSW 33 46 18 25 1010.8 1010.0 0.0
01/08:15pm 23.2 16.5 10.9 46 6.9 SSW 37 56 20 30 1010.2 1009.4 0.0
01/08:00pm 24.2 17.9 11.2 44 7.4 SSW 35 50 19 27 1009.5 1008.7 0.0
01/07:30pm 26.1 18.9 10.7 38 8.7 SSW 39 54 21 29 1008.4 1007.6 0.0
01/07:00pm 27.5 21.1 10.7 35 9.6 SW 35 48 19 26 1007.5 1006.7 0.0
01/06:30pm 29.0 21.8 10.6 32 10.5 SW 39 52 21 28 1006.7 1005.8 0.0
01/06:19pm 29.6 21.3 10.2 30 11.1 SW 44 56 24 30 1006.6 1005.7 0.0
01/06:17pm 30.2 24.2 10.2 29 11.4 W 32 57 17 31 1006.3 1005.4 0.0
01/06:00pm 30.3 26.0 10.8 30 11.3 W 24 33 13 18 1005.9 1005.0 0.0
01/05:30pm 30.1 26.3 11.1 31 11.0 W 22 33 12 18 1005.6 1004.8 0.0
01/05:00pm 31.1 25.9 10.4 28 12.0 W 28 46 15 25 1005.1 1004.3 0.0
01/04:58pm 31.0 26.0 10.9 29 11.7 W 28 46 15 25 1005.1 1004.3 0.0
01/04:30pm 32.4 27.1 12.6 30 11.9 W 32 43 17 23 1004.8 1004.0 0.0
01/04:00pm 30.7 26.2 12.6 33 10.8 W 28 37 15 20 1004.8 1004.0 0.0
01/03:30pm 31.5 27.8 12.8 32 11.2 W 24 32 13 17 1004.8 1004.0 0.0
01/03:00pm 32.7 28.1 12.3 28 12.2 W 28 41 15 22 1005.0 1004.2 0.0
01/02:30pm 31.2 26.8 13.0 33 10.9 W 28 37 15 20 1005.3 1004.5 0.0
01/02:00pm 32.2 27.6 13.4 32 11.4 WNW 30 39 16 21 1005.4 1004.6 0.0
01/01:30pm 31.2 27.2 13.0 33 10.9 N 26 39 14 21 1004.9 1004.1 0.0
01/01:00pm 31.0 26.5 13.7 34 10.5 NNW 30 41 16 22 1005.5 1004.7 0.0
01/12:30pm 30.0 25.7 14.5 38 9.5 N 30 44 16 24 1005.5 1004.7 0.0
01/12:00pm 28.5 23.6 15.4 45 8.1 N 35 46 19 25 1006.0 1005.1 0.0
01/11:30am 28.7 22.9 14.9 43 8.4 N 39 57 21 31 1006.7 1005.8 0.0
01/11:00am 29.1 23.1 14.5 41 8.9 N 39 59 21 32 1007.4 1006.6 0.0
01/10:30am 28.9 23.4 14.7 42 8.7 N 37 67 20 36 1007.7 1007.2 0.0
01/10:00am 28.1 21.6 15.1 45 8.0 N 43 65 23 35 1007.3 1006.8 0.0
01/09:30am 27.1 21.0 15.1 47 7.3 N 41 69 22 37 1007.3 1006.8 0.0
01/09:00am 27.1 21.0 14.1 44 7.8 N 39 59 21 32 1007.5 1007.0 -
01/08:34am 26.2 21.4 14.6 48 7.0 NNE 33 52 18 28 1007.7 1007.2 -
01/08:30am 25.9 21.4 15.0 51 6.6 NNE 32 46 17 25 1007.7 1007.2 -
01/08:15am 24.7 21.0 15.1 55 5.8 NNE 28 46 15 25 1007.7 1007.2 -
01/08:00am 24.1 21.0 15.6 59 5.2 NNE 26 37 14 20 1007.8 1007.3 -
01/07:30am 22.6 20.3 15.7 65 4.2 NE 22 30 12 16 1007.6 1007.1 -
01/07:00am 21.0 20.1 15.8 72 3.1 NE 15 24 8 13 1007.6 1007.1 -
01/06:30am 20.3 19.3 15.5 74 2.9 NE 15 22 8 12 1007.4 1006.9 -
01/06:00am 20.6 19.5 15.4 72 3.1 NE 15 20 8 11 1007.2 1006.6 -
01/05:30am 20.6 19.1 15.2 71 3.2 NE 17 22 9 12 1007.0 1006.4 -
01/02:00am 22.2 19.9 14.6 62 4.5 N 20 28 11 15 1008.5 1008.0 0.8
01/01:30am 22.0 19.2 15.4 66 4.0 N 24 32 13 17 1008.6 1008.1 0.8
01/01:00am 20.8 19.6 17.0 79 2.3 NE 19 26 10 14 1008.9 1008.4 0.8
01/12:30am 20.5 20.1 18.1 86 1.5 NE 17 24 9 13 1009.2 1008.7 0.8
01/12:00am 19.4 19.9 18.4 94 0.6 NE 13 17 7 9 1009.4 1008.9 0.8
 
Date/Time
EDT
Temp
°C
App
Temp
°C
Dew
Point
Rel
Hum
%
Delta-T
°C
Wind Press
QNH
hPa
Press
MSL
hPa
Rain
since 9 am
mm
Dir
 
Spd
km/h
Gust
km/h
Spd
kts
Gust
kts
31/11:30pm 19.7 20.1 18.9 95 0.5 ENE 15 19 8 10 1009.3 1008.8 0.8
31/11:00pm 20.1 20.1 18.0 88 1.3 ENE 15 19 8 10 1009.7 1009.2 0.8
31/10:30pm 20.6 20.1 17.8 84 1.7 E 17 22 9 12 1010.0 1009.5 0.8
31/10:00pm 20.8 20.3 18.6 87 1.4 E 19 28 10 15 1010.4 1009.9 0.8
31/09:49pm 20.5 18.5 19.2 92 0.8 E 28 35 15 19 1009.9 1009.4 0.8
31/09:30pm 20.9 21.6 18.8 88 1.3 ESE 13 17 7 9 1010.8 1010.3 0.8
31/09:00pm 20.8 23.0 19.3 91 1.0 SE 6 9 3 5 1011.3 1010.8 0.6
31/08:30pm 21.3 22.9 18.3 83 1.9 WNW 7 9 4 5 1011.8 1011.2 0.6
31/08:00pm 21.5 20.7 17.9 80 2.2 NW 19 28 10 15 1012.3 1011.8 0.6
31/07:30pm 23.7 18.4 16.2 63 4.6 WNW 39 48 21 26 1012.2 1011.7 0.4
31/07:00pm 22.1 18.3 18.1 78 2.5 W 35 57 19 31 1011.3 1010.8 0.4
31/06:55pm 22.5 17.3 17.4 73 3.2 WNW 41 59 22 32 1011.0 1010.5 0.4
31/06:50pm 23.7 17.0 16.2 63 4.6 WNW 46 59 25 32 1010.5 1010.0 0.4
31/06:46pm 26.3 14.6 13.4 45 7.6 NW 67 89 36 48 1010.0 1009.5 0.2
31/06:43pm 27.3 13.9 12.1 39 8.8 NW 74 89 40 48 1009.5 1009.0 0.2
31/06:42pm 27.9 18.1 11.5 36 9.5 NW 54 89 29 48 1008.9 1008.4 0.2
31/06:41pm 28.5 20.1 11.1 34 10.0 NW 46 69 25 37 1009.1 1008.6 0.2
31/06:40pm 29.7 21.5 9.8 29 11.3 NW 43 57 23 31 1009.0 1008.5 0.2
31/06:30pm 28.6 22.8 10.8 33 10.2 N 32 52 17 28 1008.0 1007.5 0.2
31/06:28pm 28.4 22.2 10.1 32 10.4 N 33 52 18 28 1007.8 1007.3 0.2
31/06:20pm 31.4 24.1 7.1 22 13.3 N 35 48 19 26 1007.1 1006.5 0.2
31/06:00pm 32.4 29.6 5.0 18 14.6 E 9 13 5 7 1005.9 1005.3 0.2
31/05:30pm 33.6 30.8 3.4 15 15.7 E 7 9 4 5 1006.0 1005.4 0.2
31/05:00pm 33.6 31.4 3.4 15 15.8 E 4 9 2 5 1006.1 1005.5 0.2
31/04:40pm 33.0 27.7 2.9 15 15.5 NNW 20 35 11 19 1006.9 1006.3 0.2
31/04:30pm 32.6 24.3 4.4 17 14.9 WNW 37 57 20 31 1006.9 1006.3 0.2
31/04:19pm 33.6 25.1 3.4 15 15.7 WNW 37 50 20 27 1006.8 1006.2 0.2
31/04:16pm 33.7 27.0 3.5 15 15.8 NNW 28 46 15 25 1006.5 1005.9 0.2
31/04:00pm 35.0 30.0 1.4 12 17.2 NNW 17 26 9 14 1006.4 1005.8 0.2
31/03:30pm 35.8 32.1 4.2 14 16.9 NNE 13 22 7 12 1007.0 1006.4 0.2
31/03:00pm 33.1 32.0 9.8 24 13.4 NNE 6 13 3 7 1007.8 1007.3 0.2
31/02:36pm 30.6 25.8 11.5 30 11.2 N 28 48 15 26 1008.7 1008.2 0.2
31/02:30pm 34.7 30.0 5.2 16 15.9 N 19 43 10 23 1008.3 1007.8 0.0
31/02:00pm 35.6 29.5 3.0 13 17.1 N 24 41 13 22 1008.7 1008.2 0.0
31/01:30pm 35.5 28.7 2.9 13 17.0 N 28 33 15 18 1009.5 1009.0 0.0
31/01:00pm 36.1 30.5 5.4 15 16.8 N 24 32 13 17 1010.2 1009.7 0.0
31/12:30pm 34.2 29.4 4.8 16 15.7 N 19 32 10 17 1010.8 1010.3 0.0
31/12:00pm 33.5 27.7 4.2 16 15.5 N 24 41 13 22 1011.4 1010.9 0.0
31/11:30am 34.4 28.2 2.0 13 16.6 N 24 39 13 21 1011.9 1011.3 0.0
31/11:00am 33.0 28.8 5.5 18 14.8 N 17 28 9 15 1012.5 1012.0 0.0
31/10:30am 32.2 27.6 6.4 20 14.0 N 20 26 11 14 1012.9 1012.4 0.0
31/10:00am 30.7 26.6 7.8 24 12.6 N 19 24 10 13 1013.0 1012.5 0.0
31/09:30am 29.5 24.7 7.4 25 12.0 NNE 22 32 12 17 1013.1 1012.6 0.0
31/09:00am 27.9 22.8 6.1 25 11.5 NNE 22 30 12 16 1013.2 1012.7 0.2
31/08:30am 26.9 21.7 2.7 21 12.0 NNE 19 24 10 13 1013.2 1012.7 0.2
31/08:00am 25.0 19.9 0.5 20 11.5 NE 17 28 9 15 1013.0 1012.5 0.2
31/07:30am 21.3 15.8 -1.9 21 10.1 NE 17 22 9 12 1012.9 1012.4 0.2
31/07:00am 19.4 14.5 -0.6 26 8.8 E 15 19 8 10 1012.2 1011.7 0.2
31/06:30am 16.8 11.8 -1.3 29 7.6 E 15 17 8 9 1012.1 1011.6 0.2
31/06:00am 16.6 12.0 -1.0 30 7.5 E 13 19 7 10 1012.1 1011.6 0.2
31/05:30am 16.0 11.4 -1.1 31 7.2 E 13 15 7 8 1011.9 1011.3 0.2
31/05:00am 16.1 11.1 -1.0 31 7.2 ENE 15 17 8 9 1011.8 1011.2 0.2
31/04:30am 16.2 11.2 -0.9 31 7.2 ENE 15 17 8 9 1011.7 1011.1 0.2
31/04:00am 15.9 10.9 -1.2 31 7.2 ENE 15 17 8 9 1011.8 1011.2 0.2
31/03:30am 16.3 10.9 -1.3 30 7.4 ENE 17 17 9 9 1011.9 1011.3 0.2
31/03:00am 16.7 11.7 -1.4 29 7.6 E 15 17 8 9 1011.7 1011.1 0.2
31/02:30am 16.9 11.5 -1.2 29 7.7 E 17 19 9 10 1012.0 1011.5 0.2
31/02:00am 17.1 11.8 -0.6 30 7.6 E 17 19 9 10 1012.2 1011.7 0.2
31/01:30am 16.6 12.6 0.3 33 7.1 E 11 13 6 7 1012.6 1012.1 0.2
31/01:00am 17.5 13.5 0.2 31 7.6 E 11 13 6 7 1012.9 1012.4 0.2
31/12:30am 18.3 14.3 0.4 30 7.9 E 11 13 6 7 1013.1 1012.6 0.2
31/12:00am 18.3 14.0 0.9 31 7.8 E 13 15 7 8 1013.2 1012.7 0.2
 
Date/Time
EDT
Temp
°C
App
Temp
°C
Dew
Point
Rel
Hum
%
Delta-T
°C
Wind Press
QNH
hPa
Press
MSL
hPa
Rain
since 9 am
mm
Dir
 
Spd
km/h
Gust
km/h
Spd
kts
Gust
kts
30/11:30pm 20.1 16.9 1.0 28 8.7 E 7 9 4 5 1013.3 1012.8 0.2
30/11:00pm 19.6 16.5 1.1 29 8.4 E 7 9 4 5 1013.2 1012.7 0.2
30/10:30pm 19.8 16.9 1.7 30 8.3 ESE 6 13 3 7 1013.2 1012.7 0.2
30/10:00pm 19.8 16.6 0.8 28 8.6 SSE 7 9 4 5 1013.2 1012.7 0.2
30/09:30pm 22.0 20.0 -0.1 23 10.0 CALM 0 0 0 0 1013.0 1012.5 0.2
30/09:00pm 22.3 20.4 0.8 24 9.9 CALM 0 0 0 0 1012.9 1012.4 0.2
30/08:30pm 23.5 21.6 0.6 22 10.6 CALM 0 0 0 0 1012.6 1012.1 0.2
30/08:00pm 25.0 23.0 -0.2 19 11.7 CALM 0 0 0 0 1012.4 1011.9 0.2
30/07:30pm 28.6 26.4 -1.5 14 14.0 CALM 0 0 0 0 1012.1 1011.6 0.2
30/07:00pm 30.8 27.3 -3.0 11 15.6 N 6 7 3 4 1011.8 1011.2 0.2
30/06:30pm 32.0 28.3 -4.8 9 16.6 N 6 13 3 7 1011.8 1011.2 0.2
30/06:00pm 32.3 28.6 -4.6 9 16.7 WSW 6 13 3 7 1011.8 1011.2 0.2
30/05:30pm 32.8 27.8 -4.2 9 16.9 WSW 13 22 7 12 1011.9 1011.3 0.2
30/05:00pm 32.5 28.4 -3.0 10 16.5 NNW 9 13 5 7 1011.8 1011.2 0.2
30/04:30pm 33.4 28.6 -2.3 10 16.9 SW 13 17 7 9 1011.9 1011.3 0.2
30/04:00pm 31.5 26.6 -3.8 10 16.1 SSW 13 26 7 14 1012.2 1011.7 0.2
30/03:30pm 32.1 27.4 -4.7 9 16.6 SSW 11 24 6 13 1012.6 1012.1 0.2
30/03:00pm 32.6 28.1 -2.9 10 16.6 SW 11 24 6 13 1013.0 1012.5 0.2
30/02:30pm 32.3 28.3 -1.9 11 16.2 NNW 9 20 5 11 1013.5 1013.0 0.2
30/02:00pm 31.8 27.2 -1.1 12 15.7 WNW 13 20 7 11 1014.1 1013.6 0.2
30/01:30pm 31.5 27.8 -0.2 13 15.4 W 9 17 5 9 1014.5 1014.0 0.2
30/01:00pm 30.2 26.9 2.5 17 13.9 W 9 19 5 10 1015.0 1014.5 0.2
30/12:30pm 29.7 26.4 0.3 15 14.2 NW 7 13 4 7 1015.4 1014.9 0.0
30/12:00pm 29.8 25.9 1.3 16 14.0 W 11 24 6 13 1015.9 1015.4 0.0
30/11:30am 29.4 26.8 1.0 16 13.9 SSE 4 9 2 5 1016.1 1015.6 0.0
30/11:00am 29.2 25.4 1.7 17 13.5 NNW 11 17 6 9 1016.4 1015.9 0.0
30/10:30am 28.7 24.8 1.3 17 13.4 N 11 19 6 10 1016.5 1016.0 0.0
30/10:00am 27.6 23.6 2.6 20 12.4 NNE 13 19 7 10 1016.6 1016.1 0.0
30/09:30am 27.2 23.4 3.7 22 11.8 NE 13 19 7 10 1016.6 1016.1 0.0
30/09:00am 25.4 20.6 2.8 23 11.1 NE 17 22 9 12 1016.7 1016.3 0.0
30/08:30am 22.6 18.1 2.1 26 9.7 NE 15 19 8 10 1016.8 1016.4 0.0
30/08:00am 21.0 19.6 3.7 32 8.4 CALM 0 6 0 3 1016.3 1015.8 0.0
30/07:30am 17.5 16.0 3.0 38 6.7 CALM 0 0 0 0 1015.9 1015.4 0.0
30/07:00am 13.0 11.5 3.1 51 4.4 CALM 0 0 0 0 1015.7 1015.2 0.0
30/06:30am 11.7 10.1 2.2 52 4.1 CALM 0 0 0 0 1015.2 1014.7 0.0
30/06:00am 12.2 10.6 2.4 51 4.3 CALM 0 0 0 0 1014.9 1014.4 0.0
30/05:30am 12.2 9.7 1.8 49 4.5 SE 4 6 2 3 1014.7 1014.2 0.0
30/05:00am 12.6 9.7 1.6 47 4.7 E 6 7 3 4 1014.5 1014.0 0.0
30/04:30am 14.1 11.4 2.4 45 5.2 ENE 6 11 3 6 1014.2 1013.7 0.0
30/04:00am 15.5 12.5 2.3 41 5.9 SE 7 9 4 5 1014.1 1013.6 0.0
30/03:30am 15.8 12.5 2.2 40 6.1 SE 9 11 5 6 1014.1 1013.6 0.0
30/03:00am 16.0 12.7 2.4 40 6.2 SSE 9 11 5 6 1014.3 1013.8 0.0
30/02:30am 16.3 13.4 2.7 40 6.2 SSE 7 9 4 5 1014.4 1013.9 0.0
30/02:00am 16.4 12.3 2.1 38 6.5 SE 13 15 7 8 1014.6 1014.1 0.0
30/01:30am 18.1 14.0 2.4 35 7.2 SE 13 15 7 8 1014.6 1014.1 0.0
30/01:00am 17.2 13.4 2.0 36 6.9 SSE 11 13 6 7 1014.8 1014.3 0.0
30/12:30am 17.8 14.1 2.2 35 7.1 SSE 11 13 6 7 1015.1 1014.6 0.0

Other Formats:

Comma delimited format used in spreadsheet applications
http://www.bom.gov.au/fwo/IDN60801/IDN60801.95718.axf

JavaScript Object Notation format (JSON) in row-major order
http://www.bom.gov.au/fwo/IDN60801/IDN60801.95718.json